LUCH 5V

Last updated on Tue Oct 14 2025 00:02:34 GMT+0000 (Coordinated Universal Time)

1 39727U 14023A 25286.65942179 -.00000280 00000+0 00000+0 0 9993 2 39727 4.5149 72.0559 0003563 170.3163 112.2722 1.00273269 41887
UTC large
Height (km)
Speed (km/s)
/
Latitude / Longitude
Inclination (degrees)
Orbital Period (minutes)
Azimuth
Elevation
Range (km)
Doppler Factor

Next 0 passes for location: London (51.5072 / 0.1276)

Sorry there are no passes over London.